Regional Weather Roundup
Issued by NWS Midland/Odessa, TX

Skip options and go directly to product.
Home | Oldest Version | Previous Version | Current Version | All | Text Only | Save Text | Print | Product List | Glossary On

Skip product version selection by date and time.   
909
ASUS44 KMAF 292001
RWRMAF
MIDLAND AREA WEATHER ROUNDUP
NATIONAL WEATHER SERVICE MIDLAND TX
300 PM CDT WED JUN 29 2016

...IN SOUTHWEST TEXAS AND SOUTHEAST NEW MEXICO...

CITY           SKY/WX    TMP DP  RH WIND       PRES   REMARKS
ALPINE         CLOUDY    82  57  42 NE9       30.24F
ANDREWS        FAIR      91  55  29 E7G17     30.12F
ARTESIA        SUNNY     91  55  29 SE15      30.12F
BIG SPRING     SUNNY     89  58  35 E7        30.11F
CARLSBAD       MOSUNNY   90  59  35 S10G17    30.10F
DRYDEN         NOT AVBL
FORT STOCKTON  MOSUNNY   91  58  32 NE8G20    30.09F
GUAD PASS      NOT AVBL
HOBBS          MOSUNNY   90  50  25 SE13G18   30.14F
MARFA          CLOUDY   N/A N/A N/A N10       30.23F
MIDLAND AIRPK  MOSUNNY   90  60  35 S7        30.11F
MIDLAND INTL   MOSUNNY   91  58  32 SE7       30.10F
ODESSA         SUNNY     91  52  26 E5        30.11F
PECOS          SUNNY     92  58  31 NE9G17    30.07F
PRESIDIO       FAIR      89  57  33 CALM      30.05F
SEMINOLE       SUNNY     92  51  24 W3        30.13F
SNYDER           N/A     88  64  43 E6        30.09F
WINK           SUNNY     91  58  32 SE12      30.08F
$$
...OTHER STATIONS IN TEXAS...

CITY           SKY/WX    TMP DP  RH WIND       PRES   REMARKS
ABILENE        MOSUNNY   92  68  45 N7        30.05F
AMARILLO       SUNNY     92  56  29 VRB5      30.12F
AUSTIN         MOSUNNY   93  66  40 N10       29.97F
BROWNSVILLE    CLOUDY    91  77  63 E12       29.94F HX 104
CORPUS CHRISTI MOSUNNY   96  71  44 NE8       29.93F HX 103
DALLAS FTW     PTSUNNY   94  65  38 E7        29.99F
DEL RIO        SUNNY     94  65  38 CALM      29.96F
EL PASO        MOSUNNY   91  51  25 E8        30.13F
HOUSTON INT    PTSUNNY   92  74  55 NE7       29.93F HX 101
LUBBOCK        MOSUNNY   91  58  32 VRB5      30.13F
SAN ANGELO     SUNNY     90  68  48 VRB5      30.06F
SAN ANTONIO    MOSUNNY   93  66  40 NE8G17    29.98F
WACO           MOSUNNY   94  69  44 NE7       29.99F
WICHITA FALLS  NOT AVBL
$$
...OTHER LOCATIONS IN NEW MEXICO...

CITY           SKY/WX    TMP DP  RH WIND       PRES   REMARKS
ALAMAGORDO     CLOUDY    88  54  31 NE6       30.16F
ALBUQUERQUE    CLOUDY    87  47  24 VRB3      30.24F
CANNON AFB     NOT AVBL
CLOVIS         MOSUNNY   90  55  31 W8        30.16F
HOLLOMAN AFB   NOT AVBL
ROSWELL        SUNNY     93  52  24 VRB7      30.11F
RUIDOSO        LGT RAIN  77  43  29 SE8       30.36F
SANTA FE       CLOUDY    86  37  17 VRB6      30.30F
TRUTH OR CONSE PTSUNNY   86  51  29 NW5       30.19F
TUCUMCARI      SUNNY     94  49  21 VRB7      30.11F
$$

USA.gov is the U.S. government's official web portal to all federal, state and local government web resources and services.